Temp
21 22 21 21 20 20 19 20 20 20 20 19 19 20 20 19 19 19 19 19 19 19 19 19 19 20 20 20 20 20 20 20 20 20 20 20 20 19 20 20 20 20 20 19 19 20 20 20 20 20 20 20 20 20 20 20 20 20 20 20 20 20 20 20 20 21 22 21 21 21 21 21 21 21 21 21 21 20 20 19 19 19 18 19 19
19 21 22 21 20 20 20 20 20 21 20 19 17 18 20 20 20 19 19 19 19 19 19 19 20 20 20 20 20 21 21 20 20 20 20 20 20 20 20 20 20 20 20 19 19 20 20 20 20 20 20 20 20 20 20 20 20 20 20 20 20 20 20 20 20 21 21 21 21 21 21 21 21 21 21 21 21 21 20 20 19 19 19 19 19
18 20 22 22 21 20 20 20 20 20 21 20 19 19 20 20 20 20 19 18 19 19 19 19 20 20 19 19 20 21 21 21 21 20 20 20 20 20 20 20 20 20 20 19 20 20 20 20 20 20 20 20 20 20 20 20 20 20 20 20 20 20 20 20 20 20 21 21 21 21 21 21 21 21 21 21 20 21 21 21 20 20 20 19 19
17 18 21 22 21 21 20 20 20 20 20 21 21 20 20 20 20 20 19 18 18 19 20 20 19 20 20 19 20 21 21 21 21 21 21 20 20 20 20 20 20 20 20 20 20 20 20 19 19 20 20 20 20 20 19 19 19 20 20 20 20 20 20 20 20 20 20 20 21 21 21 21 21 21 21 21 21 21 21 21 20 21 20 19 19
17 17 19 21 22 21 21 20 20 20 21 21 21 20 20 19 19 19 19 19 19 19 20 20 19 19 20 20 21 21 21 21 21 21 21 21 21 21 20 20 20 20 20 20 20 20 20 20 19 19 20 20 20 20 20 19 19 19 19 20 20 20 20 19 19 19 19 20 20 20 20 21 21 21 21 21 22 22 21 21 20 20 20 20 19
17 16 17 19 21 21 21 21 20 20 20 21 21 21 20 19 19 20 20 19 19 19 20 20 19 19 20 20 21 21 21 21 21 21 21 21 21 21 20 20 20 20 20 20 19 20 20 20 20 19 19 19 19 19 19 19 19 19 19 19 20 20 20 20 19 19 19 19 20 20 20 20 20 20 21 21 21 21 21 21 20 20 19 19 19
17 17 17 17 18 19 20 20 20 20 20 20 20 20 20 20 19 20 20 19 19 19 19 19 19 19 19 19 20 21 21 21 21 21 21 21 21 21 21 20 20 20 20 20 20 20 20 20 20 19 19 19 19 19 19 19 19 19 19 19 19 20 20 20 19 19 19 19 19 20 20 20 20 20 20 21 21 21 21 20 21 20 19 18 19
17 17 17 16 15 16 18 19 18 18 20 20 19 20 20 20 20 20 20 20 19 19 19 19 19 18 19 19 19 20 21 21 21 21 21 21 21 20 20 20 20 20 20 20 20 20 20 20 19 20 20 19 19 19 19 19 19 18 19 19 19 19 19 20 20 20 20 20 20 20 20 20 20 20 20 20 20 21 20 20 20 21 20 19 19
17 17 17 16 15 16 17 17 16 17 19 20 20 20 20 20 20 20 20 20 20 19 19 19 19 19 19 19 19 19 20 21 21 21 21 21 21 20 20 20 20 20 20 20 20 20 20 20 19 20 20 19 19 19 19 19 19 19 19 18 18 18 19 19 20 20 20 20 20 20 20 20 20 20 20 20 20 20 20 20 20 20 20 20 19
17 18 17 16 16 15 15 16 15 15 18 20 20 20 19 20 19 19 20 19 19 19 19 18 19 19 19 19 19 19 19 20 20 20 20 21 21 20 20 20 20 21 21 21 20 20 20 20 20 20 19 19 19 19 19 19 19 19 19 19 18 18 18 19 19 20 20 20 20 20 20 20 20 20 20 20 20 20 20 19 20 20 20 20 20
17 18 18 17 17 15 14 15 15 14 15 18 19 20 19 19 19 19 19 19 19 19 19 19 19 19 19 19 19 19 19 19 20 20 20 20 20 20 20 20 20 20 21 21 21 20 20 20 20 20 19 19 18 18 18 18 18 18 19 19 19 19 18 19 19 19 20 20 20 20 20 21 21 20 20 20 20 20 20 20 20 20 20 21 21
17 18 18 19 19 16 14 15 15 15 15 17 18 19 19 18 18 18 19 19 19 19 19 19 19 19 19 19 19 19 19 19 20 20 20 20 20 20 20 20 20 20 20 21 21 21 21 21 21 20 19 18 18 18 18 18 18 18 18 18 18 18 18 19 19 19 19 20 20 20 20 21 21 20 20 20 20 20 20 20 20 20 20 21 21
16 17 18 19 20 18 16 15 15 15 16 16 17 18 18 17 17 17 18 18 19 19 19 19 19 19 19 19 19 19 19 19 19 20 21 20 20 19 19 19 19 20 20 20 21 21 22 21 21 20 20 19 18 18 18 18 18 17 17 17 17 17 17 18 18 18 19 19 19 20 20 20 21 21 20 20 20 20 20 20 20 20 20 20 21
15 16 17 18 19 19 18 16 15 14 15 15 15 15 17 17 16 17 18 19 19 19 19 19 20 20 19 19 19 19 19 19 19 20 20 20 20 19 19 19 20 20 20 20 21 21 21 21 21 20 20 19 19 18 18 18 18 18 17 17 17 16 16 17 17 17 17 18 19 19 20 20 20 20 20 19 20 20 20 20 20 19 20 20 20
14 15 16 16 17 18 18 17 16 15 14 15 15 15 16 17 17 18 18 19 19 19 19 19 19 20 20 19 19 19 19 19 19 19 19 19 19 19 19 19 20 20 21 21 21 21 21 21 20 20 20 20 19 19 18 18 18 18 18 17 17 16 16 16 16 16 17 17 17 18 19 19 20 20 19 19 19 19 19 19 19 19 19 19 19
14 14 14 14 15 16 16 17 17 15 14 15 15 15 15 16 17 18 18 18 19 19 19 19 19 19 19 19 19 19 19 19 19 19 19 19 19 18 18 18 19 20 20 20 21 21 21 21 20 20 20 20 20 20 19 19 19 19 19 18 18 17 16 16 16 16 16 17 17 17 18 18 18 18 19 19 19 18 18 18 18 18 18 19 19
12 12 13 13 14 14 15 16 17 17 17 17 16 15 15 16 17 17 17 18 18 18 18 19 19 20 19 20 19 20 20 19 19 19 19 18 18 18 17 18 19 20 20 20 21 21 20 20 20 20 20 20 20 20 19 19 19 20 20 19 19 18 18 17 17 16 16 16 16 17 17 17 17 17 17 17 17 17 17 17 18 18 18 19 20
11 11 12 12 12 13 14 14 15 17 18 18 17 16 16 16 16 16 17 18 18 19 19 19 19 19 19 19 20 20 20 20 19 19 19 18 18 17 17 18 19 19 20 20 21 21 21 20 20 20 20 20 20 20 19 19 19 20 20 20 20 19 19 18 18 17 17 16 16 16 16 17 17 16 16 16 16 16 16 17 17 18 18 19 20
10 10 11 11 11 12 12 13 14 15 16 18 18 18 18 17 17 16 15 17 18 19 19 19 19 19 19 19 19 19 19 20 20 19 19 18 18 17 18 19 19 19 20 21 21 21 21 21 20 19 20 20 20 19 19 19 19 19 20 20 20 20 20 19 18 18 18 17 16 16 16 16 16 16 16 15 15 15 16 16 16 17 17 18 19
9 9 10 11 11 12 12 12 13 14 15 16 17 18 18 19 19 18 16 16 17 17 18 19 19 19 19 19 19 19 19 19 20 19 19 18 18 17 18 19 20 20 20 21 21 21 22 21 21 20 19 19 19 19 19 19 18 19 19 20 20 20 20 20 19 19 18 17 16 15 15 15 15 15 15 15 15 15 15 15 15 16 16 17 18
8 8 9 10 11 12 12 12 12 13 13 15 16 17 18 18 19 19 18 18 17 17 18 19 20 20 20 19 19 19 19 19 19 19 19 18 18 17 17 19 20 20 20 21 21 22 22 22 22 21 20 19 19 19 18 18 18 18 19 19 20 20 20 20 19 19 18 17 16 16 17 16 15 15 15 15 14 15 15 15 15 15 15 16 17
7 8 9 9 10 11 11 11 11 12 12 13 14 16 17 18 18 19 19 19 18 18 18 19 19 20 20 19 19 19 19 19 19 19 19 18 18 17 17 18 19 20 20 21 21 22 22 22 22 21 20 20 19 19 18 18 18 18 18 19 19 19 19 19 19 19 18 18 18 18 18 18 18 17 17 16 15 15 15 16 15 14 14 15 17
6 7 8 8 9 9 10 10 10 11 12 12 13 15 16 17 18 19 19 19 19 19 19 19 18 19 19 19 18 19 19 19 19 18 18 18 18 17 17 17 18 19 20 20 21 22 22 22 22 21 21 20 20 19 19 18 18 18 18 18 18 18 18 18 18 18 18 18 18 19 19 19 20 20 19 18 16 15 15 16 17 16 16 16 16
5 6 6 7 7 8 8 9 10 10 11 12 13 14 15 16 18 19 19 19 19 19 19 19 18 18 18 18 19 19 19 19 18 18 18 17 17 17 16 17 17 18 18 20 21 21 22 22 22 21 21 20 20 20 19 18 18 18 18 18 18 18 17 17 17 17 17 17 18 18 18 19 20 20 20 19 17 15 15 16 17 17 16 15 15
5 5 5 6 6 6 7 7 8 9 10 11 12 14 15 16 17 18 19 19 19 20 20 20 20 19 19 19 19 19 19 19 19 19 18 18 17 17 16 16 17 17 17 18 19 20 20 20 20 20 19 19 19 18 18 18 18 18 18 18 18 17 16 15 15 16 16 16 16 17 18 18 19 20 19 18 16 16 15 15 15 14 14 14 13
4 4 4 5 5 5 5 6 7 8 10 11 12 13 15 16 17 18 19 19 19 19 20 20 20 20 19 19 19 19 19 20 20 20 19 18 18 17 16 16 16 16 16 16 17 18 18 18 18 18 18 17 17 17 17 17 17 17 17 17 17 16 15 14 15 15 15 15 16 16 17 17 18 19 19 17 16 16 15 14 14 13 13 13 13
4 4 4 4 4 4 4 4 5 7 9 10 12 13 14 16 17 18 19 19 20 20 20 20 20 20 20 20 20 20 20 21 21 21 20 19 17 16 16 15 15 15 15 15 16 16 16 17 17 17 17 16 16 16 15 15 16 16 16 16 16 16 15 14 14 14 15 15 15 15 16 16 17 18 18 17 16 16 15 15 14 14 13 12 12
3 4 4 3 3 3 3 4 4 5 7 9 12 13 14 16 17 17 16 17 18 18 19 20 20 21 21 21 20 21 22 21 19 19 19 19 18 16 15 15 15 15 14 15 15 15 15 15 15 15 15 15 15 15 14 14 14 15 15 15 15 15 14 14 14 14 14 14 15 15 15 16 17 18 17 16 15 15 15 15 14 14 13 12 11
3 3 3 2 3 3 3 4 4 5 7 9 10 10 10 12 14 14 12 12 13 14 15 16 15 16 18 18 17 19 20 18 15 15 16 17 18 17 16 15 15 15 15 15 15 15 15 15 15 14 14 14 14 14 14 14 14 14 14 14 15 15 14 14 14 14 14 14 14 14 15 16 16 16 16 15 15 15 15 14 14 14 13 11 11
3 3 2 2 2 2 3 4 4 5 7 9 9 7 7 9 10 10 9 9 11 11 11 11 10 12 14 13 12 13 13 12 13 14 14 15 16 17 16 15 15 15 15 15 15 15 15 15 15 15 15 15 15 15 15 15 15 15 15 15 14 14 14 14 14 14 14 14 14 14 14 15 15 15 15 14 14 14 14 13 13 13 12 11 10
2 2 2 2 2 2 3 5 6 6 7 9 8 6 6 6 7 7 8 8 9 9 9 9 9 10 11 11 10 10 11 11 12 13 14 14 15 15 15 15 15 15 15 15 14 14 14 14 14 15 16 17 17 16 16 17 17 16 16 16 15 14 14 14 14 15 14 14 14 14 14 14 14 14 14 14 14 13 13 12 11 11 11 10 11
2 2 1 1 2 2 3 5 6 7 8 9 9 8 7 6 5 5 6 6 7 7 7 7 7 8 8 9 9 9 9 10 11 12 12 13 14 14 14 14 14 14 14 14 13 13 12 13 14 15 16 17 17 17 17 18 18 18 18 17 17 16 15 14 14 14 14 14 14 13 13 13 13 13 13 13 13 13 12 11 10 10 10 10 11
2 1 1 1 2 2 2 3 4 5 6 7 7 8 8 8 7 6 5 5 5 5 5 4 5 5 5 6 6 6 7 8 9 10 11 12 12 13 13 13 13 13 13 13 12 12 12 13 13 14 16 17 17 17 17 17 17 17 17 17 17 17 16 16 15 14 14 14 13 13 13 13 13 13 12 12 12 12 11 10 9 9 10 10 10
1 1 1 1 1 1 2 2 2 3 3 4 4 4 4 5 6 6 6 5 5 4 4 3 3 3 3 3 4 5 5 6 7 8 9 10 10 11 11 11 11 11 11 11 11 11 11 12 12 13 13 14 14 14 13 13 14 14 14 14 15 15 15 15 15 14 13 13 13 13 13 12 12 12 12 11 11 10 10 9 9 9 9 9 10
1 1 1 1 1 1 1 1 1 2 2 2 2 2 2 2 2 3 3 4 3 3 3 2 2 2 2 2 2 3 4 4 5 6 7 7 8 9 9 8 8 8 8 8 9 9 9 9 10 10 10 10 10 10 10 11 11 11 11 12 12 12 13 13 14 13 13 12 12 12 12 12 12 11 11 11 10 9 9 9 9 9 9 9 9
1 0 0 1 1 1 1 1 1 1 1 1 1 1 1 1 1 1 1 1 2 2 2 1 1 1 1 1 1 2 2 3 3 4 4 5 6 6 6 4 4 5 5 5 5 6 6 6 6 7 7 7 7 7 8 8 8 8 9 9 10 10 11 11 12 12 12 12 11 11 11 11 11 11 10 10 10 9 9 8 8 8 9 9 9
1 -0 -0 0 0 0 0 0 0 0 0 0 1 1 0 0 0 0 0 0 0 0 -0 -0 -0 0 0 0 0 0 1 2 3 3 2 2 2 2 1 1 2 2 2 2 3 3 3 3 3 3 4 4 4 5 5 6 6 6 7 7 7 8 8 9 9 10 10 10 10 10 10 10 10 10 9 9 9 8 8 8 8 8 8 8 8
1 -0 -1 -1 -0 -0 0 0 -0 -0 -0 -0 -0 -0 -0 -0 -0 -1 -1 -1 -1 -1 -1 -1 -1 -1 -1 -1 -1 -0 0 2 3 1 0 -0 -1 -1 -1 -1 -0 -0 0 0 1 1 1 1 1 1 1 2 2 2 3 3 4 5 5 5 6 6 6 7 7 7 8 8 8 8 8 8 8 8 8 8 8 8 8 8 8 8 8 7 8
1 -0 -1 -1 -1 -1 -0 -0 -0 -0 -0 -0 -1 -1 -1 -1 -1 -1 -1 -1 -2 -2 -2 -2 -2 -2 -2 -2 -1 -1 -1 -0 -0 -1 -2 -2 -3 -3 -3 -2 -2 -2 -1 -1 -1 -1 -0 -0 -1 -0 -0 -0 0 0 1 1 2 3 3 3 4 5 5 5 5 5 6 6 6 6 7 7 7 7 7 7 7 7 7 7 7 7 7 7 7
2 1 0 -0 -1 -1 -1 -1 -1 -1 -1 -1 -1 -1 -1 -1 -1 -1 -1 -2 -2 -2 -2 -3 -3 -3 -3 -3 -2 -2 -2 -2 -2 -3 -3 -3 -3 -4 -3 -3 -3 -3 -3 -3 -2 -2 -2 -2 -2 -2 -2 -2 -1 -1 -1 -1 -0 1 1 2 2 3 3 3 4 4 4 5 5 5 6 6 6 6 6 6 6 7 7 7 7 7 7 7 7
3 3 1 -0 -1 -0 -1 -1 -1 -1 -1 -1 -1 -1 -1 -2 -2 -2 -2 -2 -2 -2 -2 -3 -3 -3 -4 -3 -3 -3 -3 -3 -3 -3 -3 -3 -4 -4 -4 -4 -4 -4 -4 -4 -4 -3 -3 -3 -3 -3 -3 -3 -3 -3 -2 -2 -2 -1 -1 0 1 1 1 2 2 3 3 4 4 4 5 5 5 5 5 6 6 6 6 6 6 6 6 6 6
4 4 3 1 0 0 -0 -0 -1 -1 -1 -2 -2 -2 -2 -2 -2 -2 -2 -2 -3 -3 -3 -3 -3 -4 -4 -4 -3 -3 -3 -3 -3 -3 -3 -4 -4 -4 -4 -4 -4 -5 -5 -5 -5 -5 -4 -4 -4 -4 -4 -4 -4 -4 -4 -3 -3 -3 -2 -2 -1 -1 -0 0 1 2 2 3 3 4 4 4 4 4 5 5 5 5 5 5 5 5 5 5 6
4 4 4 3 2 1 1 1 0 -0 -1 -1 -2 -2 -2 -2 -2 -2 -2 -3 -3 -3 -3 -3 -3 -4 -4 -4 -4 -4 -4 -4 -4 -4 -4 -4 -4 -4 -5 -5 -5 -5 -5 -5 -5 -5 -5 -5 -5 -5 -5 -5 -5 -5 -5 -4 -4 -4 -3 -3 -3 -3 -2 -1 -1 0 1 2 3 4 4 4 4 4 4 4 4 5 5 5 5 5 5 5 5
3 4 4 4 4 3 3 2 2 1 0 -0 -1 -1 -2 -2 -2 -2 -2 -3 -3 -3 -4 -4 -4 -4 -4 -4 -4 -4 -5 -5 -5 -5 -5 -5 -5 -5 -5 -5 -5 -5 -5 -5 -5 -5 -5 -5 -6 -6 -6 -6 -5 -5 -5 -5 -5 -5 -5 -4 -4 -4 -3 -2 -2 -1 0 1 3 3 4 4 4 4 4 4 4 4 4 4 4 4 5 5 5
3 3 3 3 3 4 4 4 3 3 2 2 1 0 -0 -1 -1 -2 -2 -2 -3 -3 -3 -4 -4 -4 -5 -5 -5 -5 -5 -5 -5 -6 -6 -6 -6 -6 -6 -5 -5 -6 -6 -6 -6 -6 -6 -6 -5 -6 -6 -6 -6 -6 -6 -5 -5 -5 -6 -5 -5 -5 -4 -3 -2 -1 0 1 2 3 4 4 4 4 4 4 4 4 4 4 4 4 4 4 4
3 3 3 3 2 3 3 3 3 3 3 4 4 3 2 1 0 -0 -1 -1 -2 -2 -2 -2 -3 -3 -4 -5 -5 -6 -6 -6 -6 -6 -6 -6 -6 -6 -6 -6 -6 -6 -6 -6 -6 -6 -6 -6 -6 -6 -6 -6 -6 -6 -6 -5 -5 -5 -5 -5 -5 -4 -3 -2 -1 -0 1 2 2 3 3 4 4 4 4 4 4 4 4 4 4 4 4 4 4
2 2 2 2 2 2 2 2 2 1 2 3 3 3 2 1 1 1 -0 -1 -1 -1 -2 -2 -2 -3 -3 -4 -5 -5 -6 -6 -6 -6 -6 -6 -7 -6 -6 -6 -6 -6 -6 -7 -7 -7 -7 -6 -6 -6 -6 -5 -5 -6 -6 -6 -5 -5 -5 -4 -3 -3 -2 -1 -0 1 2 2 2 2 3 3 3 4 4 4 4 4 4 4 4 4 4 4 4
2 1 1 1 1 2 2 1 1 1 1 1 1 0 0 0 0 -0 -0 0 1 1 -0 -1 -1 -2 -3 -4 -4 -5 -5 -5 -6 -6 -6 -6 -6 -6 -6 -6 -6 -6 -6 -6 -7 -7 -7 -6 -7 -7 -6 -5 -5 -6 -7 -6 -6 -5 -4 -3 -2 -2 -1 -0 0 1 2 3 3 3 3 3 3 3 3 4 4 4 4 4 4 4 4 4 4
0 0 0 0 0 1 1 1 1 1 1 0 0 -0 -0 -0 -1 -1 -1 -1 -0 -0 -0 -1 -1 -2 -3 -3 -4 -4 -4 -4 -4 -5 -5 -5 -6 -6 -6 -6 -6 -6 -6 -6 -7 -7 -7 -7 -7 -7 -6 -5 -5 -6 -7 -7 -6 -5 -5 -4 -2 -1 -0 0 1 1 2 3 3 3 3 3 3 3 3 3 3 3 3 3 3 3 3 3 3
-1 -1 -1 -1 -1 -0 -0 -0 -0 -0 -0 -0 -0 -1 -1 -1 -1 -2 -2 -2 -2 -2 -2 -2 -2 -3 -3 -3 -3 -4 -4 -4 -4 -4 -4 -5 -5 -5 -5 -6 -6 -6 -5 -6 -6 -7 -7 -7 -7 -7 -7 -6 -5 -5 -6 -7 -6 -5 -5 -4 -3 -1 -0 0 1 2 2 2 2 2 2 2 3 3 3 3 3 3 3 3 3 3 3 3 3
-1 -1 -1 -1 -1 -1 -1 -1 -1 -1 -1 -1 -1 -1 -2 -2 -2 -3 -3 -3 -3 -3 -3 -3 -3 -3 -3 -3 -4 -4 -4 -4 -4 -4 -4 -5 -5 -5 -5 -6 -6 -6 -5 -5 -6 -6 -6 -7 -7 -7 -7 -7 -6 -5 -6 -6 -6 -5 -5 -4 -2 -1 -0 0 1 2 2 1 1 1 1 1 2 2 2 3 3 3 3 3 3 3 3 3 3
Height
709 708 708 709 710 711 712 713 716 718 720 723 725 726 728 730 733 736 739 742 746 749 753 756 759 760 761 763 764 766 768 770 773 775 778 780 782 784 786 787 789 790 791 791 792 793 794 795 796 798 801 802 803 804 805 805 806 807 807 807 806 807 807 807 806 804 804 805 804 804 804 804 803 803 803 804 804 804 804 805 805 805 805 805 805
707 705 705 706 706 707 708 709 712 714 715 718 722 724 723 725 730 733 734 737 741 746 749 752 754 756 757 758 760 761 763 765 768 771 773 776 778 780 782 783 784 785 786 787 788 790 791 792 793 795 797 799 800 801 802 802 803 804 804 804 804 804 805 805 804 802 802 803 803 802 802 802 801 801 801 801 802 802 802 802 802 802 802 802 803
706 703 702 702 703 704 705 706 708 709 710 713 717 720 720 722 726 729 731 733 736 741 745 747 749 750 752 756 758 758 758 759 763 766 769 771 773 775 777 779 780 781 782 783 784 786 787 789 790 792 793 795 796 797 798 799 801 801 801 801 801 801 802 802 802 801 800 800 801 801 800 799 799 798 798 799 799 799 799 799 799 799 799 799 799
705 702 700 699 700 701 702 703 705 706 707 708 711 713 716 719 722 725 728 730 732 736 740 742 744 745 748 752 754 755 754 755 757 761 764 767 769 771 773 775 776 777 778 779 781 782 784 785 787 789 790 791 792 793 794 795 797 798 798 799 799 799 799 800 799 799 798 798 798 798 797 797 796 796 796 796 796 796 796 796 796 796 796 795 795
704 701 698 696 696 697 698 700 702 703 704 705 707 709 713 717 719 722 725 727 730 732 735 737 740 741 743 746 749 750 752 754 754 756 759 762 764 766 769 771 772 773 774 776 777 778 779 781 783 785 786 787 788 789 790 790 792 793 795 795 796 796 797 797 797 797 796 795 795 795 795 794 794 793 793 793 792 792 792 793 793 793 792 792 792
703 700 697 694 694 693 694 697 698 699 700 702 703 706 709 713 716 719 721 724 726 728 730 733 735 737 739 741 744 746 749 751 752 753 755 757 759 762 764 766 768 770 771 772 773 774 775 776 778 780 782 783 784 786 786 787 787 789 790 791 792 792 792 793 794 794 793 792 792 792 792 792 791 790 790 790 789 789 789 789 789 790 790 789 788
701 699 696 694 692 691 691 693 695 696 697 699 701 703 706 710 712 715 718 720 721 723 726 728 730 733 736 738 741 743 745 747 749 750 752 753 755 758 760 762 764 766 767 767 769 769 770 771 773 775 777 778 780 781 782 783 783 784 786 787 788 788 788 788 789 790 790 789 789 789 788 788 788 787 787 787 786 786 787 786 785 785 786 785 785
700 698 696 693 691 689 688 689 693 695 694 695 698 700 703 705 707 710 713 715 716 718 721 722 724 729 733 736 738 740 742 744 744 746 748 749 751 753 756 759 760 762 763 763 764 765 765 766 767 769 771 772 773 775 776 777 778 779 781 782 784 785 784 784 784 784 785 785 785 785 785 784 783 783 783 783 783 782 784 784 782 781 782 781 781
698 697 695 693 690 688 686 687 692 695 692 690 693 695 698 701 703 706 708 711 713 714 716 719 722 725 728 732 735 738 740 741 740 740 743 745 746 748 751 755 756 757 759 759 760 760 760 761 762 762 764 766 767 768 770 771 773 774 775 777 779 780 780 780 779 779 779 779 779 780 781 780 779 779 778 778 778 779 780 781 780 779 779 778 777
696 694 694 693 690 688 687 688 691 693 690 687 688 690 693 695 698 702 704 707 710 711 712 716 720 722 725 728 732 734 737 737 734 734 737 739 741 742 745 749 752 753 754 755 755 756 756 756 756 757 759 760 762 763 765 766 767 769 770 772 773 774 775 775 774 774 773 773 773 774 774 774 774 774 774 773 774 775 775 776 776 776 775 774 773
695 692 691 691 689 688 689 689 690 692 690 686 685 685 688 690 692 696 699 701 704 707 709 711 714 717 720 723 726 730 732 732 729 728 730 733 736 738 740 743 747 749 749 750 750 751 752 751 752 753 754 755 756 758 760 761 762 763 765 767 768 769 769 770 770 769 769 767 767 768 767 767 768 770 770 770 770 770 770 771 770 771 770 769 768
695 692 689 688 686 686 688 688 689 691 689 686 684 683 684 687 690 692 694 695 698 701 704 706 708 711 714 717 721 725 727 727 725 722 724 727 731 734 737 739 742 744 745 745 746 746 747 747 748 748 749 749 751 753 755 756 757 758 760 761 763 764 764 765 765 764 764 763 762 761 761 761 763 764 765 766 767 766 766 766 766 766 765 764 764
696 692 689 686 684 684 685 685 687 687 686 684 684 683 682 684 687 689 690 690 692 695 698 701 704 706 709 712 715 718 721 723 721 717 717 721 725 729 733 735 737 738 739 740 740 741 741 742 743 743 743 743 745 748 749 750 751 753 755 756 758 759 760 760 759 760 760 759 757 754 754 755 756 757 760 762 763 762 762 762 762 762 761 760 760
696 693 689 686 684 683 683 682 681 681 681 680 682 683 683 683 685 687 686 685 687 690 693 696 698 701 703 707 711 713 716 719 719 715 713 716 720 724 728 731 732 732 733 734 735 736 736 737 737 737 737 737 739 742 744 744 745 747 749 751 752 752 754 754 754 754 755 754 752 749 749 750 750 751 754 756 757 758 758 758 759 758 758 757 757
696 693 690 688 685 684 684 683 680 679 679 680 681 682 684 683 681 681 680 679 681 684 688 691 694 696 699 703 706 708 710 713 715 714 712 712 716 720 723 726 727 728 728 729 729 731 732 732 732 731 731 731 731 733 736 739 740 740 742 744 745 747 748 746 745 746 747 747 747 746 746 747 746 747 749 750 751 753 754 755 756 756 755 755 754
697 695 692 690 688 686 685 685 683 682 682 682 681 680 681 680 677 674 674 676 678 680 683 686 690 692 695 699 701 702 704 707 709 710 710 710 714 717 720 722 723 724 724 724 724 726 728 729 728 727 727 726 725 725 727 731 735 735 735 737 739 741 741 739 738 739 740 740 741 742 743 744 744 744 745 746 747 748 750 752 753 753 753 751 750
699 697 694 692 690 688 687 685 684 684 682 681 679 678 678 678 675 672 672 673 675 677 679 682 685 688 690 694 696 698 700 702 704 705 706 708 711 714 717 719 719 720 720 719 719 720 723 724 724 724 724 724 723 721 721 725 728 729 730 731 733 735 734 733 734 734 733 734 736 737 739 741 742 742 743 744 745 746 747 747 748 749 749 746 745
700 697 695 693 691 689 688 686 685 683 681 679 678 677 676 676 675 673 672 671 671 672 675 677 681 684 687 689 691 694 696 698 699 700 702 704 707 710 713 715 715 716 716 715 714 715 717 719 720 721 720 719 719 719 719 720 722 723 725 726 728 729 728 729 730 729 729 730 731 732 734 736 737 738 739 741 742 743 743 742 743 745 744 742 741
701 698 695 693 691 689 688 687 686 684 682 679 677 676 675 674 673 673 674 673 671 670 672 675 677 680 683 685 688 690 692 693 695 696 697 700 702 706 709 710 710 711 711 709 709 710 712 713 714 715 715 715 715 716 716 717 718 718 719 721 723 722 721 724 726 725 725 726 727 728 729 729 730 732 734 735 737 737 738 738 740 741 740 739 739
701 699 695 693 690 689 688 687 685 684 683 680 677 675 674 673 672 672 673 674 673 671 671 672 674 676 678 681 683 685 687 689 691 692 694 696 698 701 704 704 704 705 705 704 703 705 707 708 708 709 709 710 712 713 715 716 717 717 718 718 718 717 717 721 723 721 721 723 724 725 725 724 725 726 727 729 729 730 731 733 735 735 735 736 736
701 699 696 693 690 688 687 686 684 683 682 680 678 676 674 672 671 671 671 671 672 671 671 670 670 672 674 677 679 681 683 685 686 688 690 692 693 696 698 697 697 699 700 700 700 701 702 702 703 704 705 706 708 711 712 714 715 717 717 716 715 715 717 719 719 718 718 720 721 722 722 721 721 720 720 721 721 722 723 726 727 729 730 731 731
702 699 696 693 690 688 686 684 683 681 680 679 677 675 673 671 670 670 669 668 668 669 669 669 669 670 672 674 676 677 679 681 683 685 687 688 690 691 692 691 691 694 696 697 697 696 696 697 698 700 701 702 704 707 709 711 712 714 715 714 713 715 716 717 716 715 715 716 717 718 718 717 717 715 715 715 713 712 712 715 718 721 723 724 725
701 699 696 693 690 688 685 683 681 679 678 677 675 674 672 670 669 668 668 667 666 666 667 668 669 670 671 672 673 674 676 679 680 681 683 686 687 687 687 686 687 691 694 694 693 693 693 694 695 697 697 698 700 702 704 706 708 709 711 711 710 711 713 713 713 712 712 712 713 713 712 712 711 711 711 711 708 704 703 706 710 713 715 717 718
699 696 694 691 689 687 685 682 680 678 676 675 673 671 670 669 667 666 666 665 665 665 666 666 667 668 669 670 671 672 674 676 677 678 680 684 685 683 682 682 685 688 691 691 690 691 691 692 693 693 694 695 696 698 700 702 703 704 706 706 707 708 709 709 708 707 707 708 708 707 707 707 706 706 708 709 707 702 701 703 705 707 710 711 714
697 694 692 689 687 685 683 681 678 676 674 673 671 669 667 666 665 664 663 664 663 663 663 664 664 666 667 668 668 669 671 672 673 674 677 680 680 679 678 680 682 685 687 688 688 689 690 690 690 690 691 692 694 695 696 698 699 700 701 702 703 704 704 704 703 702 702 702 702 702 702 702 703 703 705 706 705 702 701 702 703 705 707 708 709
696 693 690 687 685 682 680 677 675 673 671 669 668 666 665 663 662 661 661 661 662 662 662 662 662 663 665 666 666 667 667 667 668 670 672 674 674 675 676 677 679 682 684 685 686 687 687 687 688 689 690 691 692 693 693 694 696 697 697 698 698 699 699 699 698 697 696 696 697 697 697 698 700 700 701 702 701 699 697 698 700 701 702 703 704
698 694 690 686 683 680 677 674 672 670 668 666 663 662 661 660 659 659 658 658 659 660 662 662 661 661 662 662 662 662 662 662 663 665 667 669 670 672 674 675 677 679 681 682 683 684 684 685 687 688 689 689 689 690 690 691 692 693 693 694 694 694 694 694 693 692 691 691 691 692 692 694 695 695 696 696 696 694 693 694 695 696 697 699 702
700 696 692 688 683 679 675 671 668 666 665 663 660 658 656 656 656 657 657 657 657 659 661 661 660 658 658 659 660 659 658 660 662 663 665 667 668 670 671 673 674 676 677 679 680 681 682 683 684 684 685 686 686 686 687 687 687 688 689 689 689 689 689 689 688 687 686 686 687 687 689 690 690 690 690 691 691 690 690 690 691 692 693 696 698
702 698 694 688 682 676 670 665 662 661 660 658 657 655 653 653 654 656 657 657 658 659 661 661 660 660 659 660 661 660 659 660 663 664 665 666 667 669 670 671 673 674 676 677 678 679 679 680 681 681 682 682 683 683 683 683 683 683 683 683 683 683 683 682 682 681 681 682 683 684 685 686 686 686 686 686 687 686 686 686 686 688 690 692 693
703 699 694 688 680 672 662 653 650 653 654 653 653 653 653 653 655 656 658 658 658 659 661 662 662 662 661 662 663 663 663 663 664 665 665 666 667 668 670 671 671 673 674 675 676 677 677 678 678 679 679 679 679 679 678 678 678 678 677 677 676 676 676 676 675 675 676 677 678 679 681 681 682 682 682 682 682 682 682 681 682 684 685 686 686
704 700 694 688 680 671 659 647 644 647 649 648 648 651 654 657 658 659 659 659 660 661 662 663 663 663 663 664 665 665 665 664 664 664 665 666 667 668 669 670 670 671 672 673 674 673 674 675 676 676 676 676 675 674 674 673 673 673 672 672 671 670 670 670 670 671 671 672 673 675 676 677 677 677 677 677 677 678 678 678 680 681 681 681 680
706 701 695 688 681 673 662 653 649 648 648 647 647 649 653 658 661 663 662 661 662 663 664 664 665 665 665 666 666 665 665 665 664 664 664 665 665 666 667 668 668 669 670 671 670 670 671 673 673 673 673 672 671 671 670 669 668 667 667 667 667 667 667 666 667 667 667 668 669 670 671 672 672 673 673 672 673 673 674 675 676 677 677 677 677
708 703 697 691 684 676 668 660 655 653 651 650 650 650 654 658 662 666 666 665 665 665 666 667 668 668 668 668 668 668 667 666 665 664 664 663 664 664 665 665 666 667 667 668 668 669 670 671 670 670 670 669 668 668 667 666 665 664 664 663 663 663 663 663 663 663 663 664 665 665 666 667 668 668 668 669 669 670 670 672 673 673 674 674 674
710 706 701 695 688 681 675 669 664 662 660 659 657 657 660 663 665 668 670 670 669 669 670 671 672 672 672 671 670 670 668 666 665 664 663 663 663 663 664 665 665 666 667 667 668 668 669 669 669 669 669 668 668 667 667 665 664 663 663 662 661 661 661 660 660 660 659 660 661 662 663 664 664 664 665 665 665 666 667 668 669 670 670 670 670
713 708 704 699 693 687 682 678 673 671 669 668 667 667 668 670 671 673 674 675 675 675 676 677 677 676 676 675 674 672 670 668 667 665 664 664 664 664 664 666 667 668 669 670 670 670 670 670 670 670 669 669 668 668 667 666 665 664 663 661 661 660 660 660 659 659 658 658 659 659 659 660 660 660 661 661 661 662 662 663 664 665 665 665 666
715 711 707 703 698 694 690 686 682 680 679 678 677 677 676 676 677 679 680 680 680 681 681 682 681 680 679 678 677 675 673 672 670 668 667 667 666 665 667 670 673 674 674 674 674 674 673 673 672 672 671 670 669 669 668 667 665 664 663 662 661 660 660 659 658 658 657 657 656 656 656 657 657 657 657 657 658 658 658 659 660 660 660 661 662
719 716 712 708 704 700 697 694 691 689 687 687 686 685 684 683 683 684 686 685 684 685 686 686 684 682 681 680 680 679 678 676 673 671 671 671 670 670 673 676 678 678 678 679 678 677 677 676 676 675 674 673 671 670 669 668 666 665 663 662 661 660 659 658 658 657 657 656 655 655 654 655 655 655 655 655 655 655 655 656 656 656 657 658 659
723 720 717 713 709 706 703 700 698 695 694 694 693 692 691 691 689 689 691 691 689 690 691 690 687 687 687 686 686 684 681 677 674 674 675 676 677 679 681 682 682 683 683 683 682 681 681 680 679 678 677 676 674 672 671 669 667 666 664 663 662 660 659 658 657 657 656 655 655 654 653 653 653 653 653 653 653 653 653 653 653 654 654 656 656
726 724 720 717 714 711 708 706 704 702 701 701 700 698 698 697 694 695 697 697 694 693 694 693 692 694 695 693 690 687 685 682 682 684 685 686 686 688 688 687 687 687 687 687 686 685 684 683 682 681 680 678 677 675 673 671 669 667 665 664 663 661 660 658 658 657 657 656 655 654 653 652 651 651 651 651 651 651 652 652 652 652 653 653 654
730 728 724 721 718 716 714 712 710 709 708 707 706 705 705 704 704 704 704 701 697 696 698 698 699 701 701 698 695 694 693 692 692 692 693 693 694 694 693 693 693 693 692 691 690 690 689 687 685 684 682 681 680 678 675 673 671 669 667 666 664 663 661 660 660 659 658 657 656 655 653 652 651 651 650 650 650 650 650 651 651 652 652 653 653
732 731 728 726 723 721 720 718 717 715 714 713 712 712 712 712 712 711 708 704 702 702 704 706 706 707 707 704 703 702 700 698 697 697 698 699 700 699 699 699 699 699 697 696 694 694 693 691 689 686 685 684 683 681 678 675 672 671 669 668 666 665 663 662 661 660 659 658 656 655 654 653 652 651 650 649 649 649 649 650 650 651 651 652 653
735 733 731 729 728 726 724 723 723 721 720 719 718 718 717 717 715 714 711 709 709 709 710 710 711 711 711 710 709 707 704 702 702 703 703 704 704 704 704 705 705 704 703 700 698 697 696 695 692 689 687 686 685 683 680 677 675 673 672 670 668 666 665 663 661 660 659 658 657 655 654 653 652 651 650 649 649 648 648 649 650 650 650 651 652
737 736 734 733 732 730 729 728 727 726 725 724 723 723 722 720 719 717 716 715 714 714 714 715 715 715 714 714 712 710 708 708 708 708 707 708 708 709 710 710 710 709 707 704 702 700 699 697 694 691 689 689 688 687 684 681 678 676 674 672 671 669 666 664 662 661 659 658 657 656 654 653 652 651 650 649 648 648 648 648 649 649 650 650 652
739 738 737 736 735 734 733 732 731 730 729 728 727 726 725 724 723 722 721 720 720 719 719 720 720 719 719 718 717 715 713 713 713 713 712 712 713 713 714 714 713 712 710 708 706 703 700 698 696 694 693 692 691 689 687 684 682 680 678 675 673 670 668 666 664 662 660 659 657 656 654 653 652 651 650 649 648 648 648 648 648 649 649 650 652
741 740 739 738 738 737 735 734 733 733 732 731 730 729 728 727 727 726 725 725 725 725 725 725 725 724 723 722 720 719 718 718 717 717 717 717 717 717 717 716 715 714 712 710 708 705 702 700 698 697 696 695 694 691 689 686 684 682 680 678 675 672 670 668 665 663 661 659 658 656 655 654 653 652 651 650 649 648 648 648 648 649 650 651 653
744 743 742 741 740 740 738 737 736 735 734 733 732 731 731 731 730 730 730 730 729 729 729 729 729 728 727 726 725 724 723 722 722 722 722 722 721 720 719 718 717 716 714 711 709 706 704 703 701 699 698 696 694 692 690 687 684 683 681 679 676 674 672 669 666 664 662 660 659 658 656 655 653 652 651 650 649 649 649 649 649 649 651 652 653
746 745 744 743 743 742 741 740 739 739 738 737 735 734 735 734 734 733 734 733 733 733 732 732 732 731 730 730 729 728 727 726 726 726 725 724 723 722 721 719 718 717 715 713 711 709 707 706 704 702 700 698 695 694 691 689 686 684 682 680 677 675 673 670 668 666 664 661 660 659 657 656 654 653 652 651 651 650 650 650 650 651 651 652 653
748 747 746 745 745 744 743 743 742 741 741 740 739 738 738 738 737 737 737 736 735 735 735 734 734 734 733 733 732 731 731 730 729 728 728 727 725 724 723 722 721 720 718 716 714 712 711 709 708 705 703 700 698 696 694 692 690 687 684 681 679 677 676 673 670 667 664 662 661 660 658 657 655 654 653 652 651 651 651 651 651 651 651 651 652
750 749 748 747 747 746 745 745 744 743 743 742 742 741 741 740 740 740 739 739 738 737 737 737 737 737 736 736 735 734 734 733 732 731 731 730 728 727 726 725 724 723 721 719 717 716 714 712 710 708 705 703 700 698 697 695 693 690 687 684 681 679 677 675 672 669 666 663 661 660 659 658 657 656 654 653 652 652 652 651 651 651 651 651 652
752 751 751 750 749 749 748 747 747 746 746 745 744 744 743 743 742 742 742 742 741 741 740 740 740 739 739 739 738 737 737 736 735 734 734 733 732 731 729 728 726 725 724 722 721 719 717 715 713 711 709 706 704 702 700 698 696 693 690 687 684 681 679 676 673 670 667 665 663 662 661 660 659 658 656 655 654 653 652 652 652 652 652 652 652
754 753 753 752 751 751 750 750 749 749 748 748 747 747 746 746 745 745 745 744 744 744 743 743 743 742 742 741 741 740 739 739 738 737 737 736 734 733 732 731 729 728 727 725 723 722 720 718 716 714 712 710 707 705 703 701 698 695 692 689 686 683 680 677 674 671 669 667 665 664 663 662 662 661 659 657 656 655 654 654 653 653 653 653 653
Wind_Speed
25 28 30 32 32 31 30 31 32 35 36 34 32 28 25 26 29 30 25 23 24 24 23 23 24 24 23 24 24 23 24 24 25 26 26 27 27 26 25 25 25 26 25 25 25 25 23 21 21 21 20 21 21 20 21 21 20 19 18 17 18 18 19 19 15 13 16 17 17 16 14 14 14 15 15 15 15 16 17 17 17 18 19 19 19
22 26 28 30 33 32 30 31 32 33 33 35 36 33 27 24 26 29 28 26 26 27 26 25 25 24 24 24 25 24 25 24 24 26 26 26 27 26 26 26 27 27 26 25 26 25 24 22 21 20 20 21 22 21 20 20 19 20 20 19 19 19 19 20 18 15 15 17 18 17 16 16 16 15 15 16 16 16 16 16 17 17 18 17 17
20 22 26 28 31 32 31 33 34 31 30 33 35 31 28 27 27 29 31 31 30 28 28 28 28 26 25 26 27 26 26 25 25 26 27 26 26 27 27 27 27 27 27 26 25 24 24 23 22 21 20 21 22 22 20 20 20 20 20 20 20 20 20 20 20 18 17 17 17 17 17 17 17 17 16 16 17 17 17 17 16 16 16 16 16
20 19 23 28 29 31 32 33 34 33 31 31 30 28 30 31 29 28 31 34 34 31 30 31 31 29 27 27 28 27 26 26 25 26 27 27 27 27 28 27 27 27 27 26 26 24 23 23 23 22 22 22 23 22 20 20 20 20 20 20 20 20 20 20 21 21 19 18 17 17 18 17 17 17 16 16 17 18 18 17 17 16 15 15 15
18 18 20 26 28 29 32 33 33 33 32 31 30 29 32 33 30 28 30 33 34 33 32 33 31 29 28 27 27 26 25 25 25 26 26 26 26 26 27 27 27 27 26 26 26 25 23 23 23 23 22 23 23 23 22 21 21 21 21 21 21 21 21 21 21 21 21 20 19 18 18 17 17 17 17 17 17 18 18 19 18 17 16 15 14
17 18 18 22 25 25 28 30 32 33 32 32 30 29 32 33 30 29 30 32 33 33 35 37 33 29 29 29 26 25 26 25 25 25 25 25 25 25 26 26 27 26 26 26 26 25 25 24 24 23 23 23 23 23 23 22 22 23 23 23 22 21 21 21 21 21 22 21 20 19 18 18 18 18 19 19 19 19 18 19 19 18 16 16 16
17 18 17 17 20 21 23 26 30 33 32 31 30 29 30 32 31 31 31 31 33 33 33 36 34 29 27 28 27 26 26 26 25 24 24 24 24 24 25 26 26 26 27 27 26 26 26 25 24 25 25 24 24 24 24 24 24 25 25 25 23 22 21 21 22 22 21 21 20 20 19 19 19 20 20 19 20 20 19 19 18 17 16 17 17
16 17 16 16 18 20 23 25 29 33 31 29 30 31 32 33 33 35 35 33 33 33 32 33 33 29 24 24 26 27 27 27 26 25 25 24 23 23 25 26 27 27 27 27 27 27 26 26 26 26 27 27 26 26 26 25 24 25 27 26 25 25 24 22 22 22 21 21 21 20 20 20 20 20 20 17 16 18 19 18 18 17 17 17 15
16 16 15 16 21 23 21 20 26 32 31 30 32 34 34 34 34 35 35 33 31 31 32 31 31 29 25 22 23 25 28 29 27 26 26 25 24 23 24 26 28 28 28 27 28 28 27 27 27 28 29 29 29 28 28 27 25 23 24 26 27 27 26 24 23 22 22 21 21 21 20 21 21 21 20 19 18 19 18 18 18 17 17 17 16
17 16 15 15 20 23 23 22 26 30 28 27 31 33 34 34 32 32 34 34 32 32 34 34 33 33 31 28 26 26 29 31 30 29 29 27 25 24 25 27 29 28 28 28 28 29 29 28 29 30 31 32 31 31 30 30 29 26 24 26 27 27 27 26 24 23 22 21 21 21 20 22 22 22 21 21 20 19 18 18 18 18 16 17 17
18 17 16 15 13 16 21 24 27 29 29 27 27 28 31 33 33 33 34 34 32 31 33 35 36 38 38 35 32 31 31 33 34 34 32 31 29 27 27 28 29 29 28 28 28 29 30 29 28 29 32 33 33 33 33 33 33 32 31 30 29 28 27 26 25 24 23 22 22 22 22 23 23 22 22 21 20 20 19 19 18 18 17 15 15
18 18 17 16 10 9 16 21 24 26 28 27 26 26 27 30 32 34 36 36 34 33 33 33 34 35 34 32 31 32 34 36 38 36 34 34 34 30 27 27 29 29 29 29 29 28 28 28 28 28 30 33 34 34 35 36 36 36 36 36 36 34 32 30 29 26 24 23 23 24 24 24 23 22 22 21 20 20 20 19 19 19 18 17 16
17 18 17 16 13 6 11 17 19 21 23 24 24 25 26 28 30 33 35 35 33 33 34 34 33 32 31 29 30 32 34 37 40 39 36 36 39 37 30 27 28 29 30 30 30 29 28 28 28 28 28 31 34 34 34 35 36 36 37 38 40 41 40 40 38 34 29 26 26 27 27 25 24 23 22 22 21 20 19 19 19 20 20 18 17
17 18 17 17 16 10 6 12 15 17 18 19 21 26 27 26 30 35 33 31 31 31 32 33 33 31 31 31 31 32 34 36 38 39 38 38 42 43 37 29 29 30 30 30 30 30 29 29 29 29 28 28 33 35 32 30 30 31 33 37 41 43 44 45 46 45 41 38 36 33 29 27 26 24 21 21 22 22 20 18 18 20 20 18 17
17 17 17 18 18 16 10 8 13 16 17 17 19 24 27 25 26 28 27 26 29 30 30 30 31 31 32 32 30 30 33 34 35 37 38 38 41 44 40 33 30 30 29 29 30 30 30 29 29 29 28 28 33 37 35 30 28 27 29 34 37 37 39 43 47 48 49 49 47 41 33 29 29 27 25 24 23 21 20 18 17 18 19 18 17
16 16 17 18 18 19 17 11 9 13 18 20 19 20 25 27 25 23 23 25 27 28 29 30 30 31 32 31 30 29 30 33 35 37 39 39 40 42 41 35 31 30 28 28 29 29 30 31 30 30 29 29 33 37 37 32 28 26 27 30 30 29 31 36 39 42 46 49 50 46 39 33 30 29 29 28 25 20 18 20 20 19 18 18 18
15 17 18 18 18 18 18 17 14 11 13 16 16 19 24 27 25 22 22 24 26 27 28 28 28 29 29 29 30 29 28 30 34 36 37 39 40 42 40 34 31 30 29 28 28 28 30 33 33 31 29 29 31 35 37 34 28 25 26 28 29 30 31 32 32 36 40 43 45 47 45 41 36 33 32 32 30 23 19 20 21 20 19 17 17
16 18 19 19 19 18 17 17 16 16 15 13 13 16 21 24 24 23 22 22 22 23 24 22 22 24 26 26 28 28 27 29 33 35 35 37 41 42 37 32 30 30 30 29 29 29 31 34 36 34 31 30 31 33 37 37 32 27 27 29 29 32 36 34 30 31 34 36 39 41 43 44 42 39 36 35 35 32 27 24 21 20 20 18 17
16 18 19 20 20 18 17 16 16 16 17 16 14 13 15 18 19 20 23 24 21 20 21 21 22 24 25 25 27 29 29 30 32 33 33 35 40 41 34 29 30 30 28 27 27 28 30 32 35 36 35 33 32 32 35 39 37 31 28 29 29 32 36 34 29 28 30 33 35 36 39 40 40 40 39 37 37 37 36 33 26 21 21 21 18
18 18 18 19 19 18 17 16 16 16 16 16 17 15 13 14 14 15 19 22 22 21 22 22 22 23 24 25 26 28 29 30 31 32 31 33 38 40 34 28 27 27 26 25 24 25 28 30 32 35 37 37 36 33 33 37 39 34 29 28 30 33 33 30 29 29 28 26 27 29 31 31 30 32 35 37 37 38 40 39 33 25 22 22 20
20 19 18 18 19 19 18 17 16 17 17 16 17 16 15 14 14 13 15 17 19 22 22 21 21 22 23 24 25 25 26 29 31 31 30 30 34 37 35 30 25 23 23 23 23 23 25 27 28 30 33 35 37 37 36 37 39 37 32 30 32 33 29 24 24 26 26 23 21 23 24 22 20 22 26 27 29 33 38 42 39 30 25 24 23
19 19 19 19 18 19 19 19 18 17 16 16 16 17 16 16 15 14 13 13 15 17 18 18 19 20 20 20 21 23 25 28 31 31 29 29 31 35 36 32 27 24 22 22 23 22 23 24 24 25 28 31 33 36 40 41 40 39 38 37 36 35 32 26 21 20 22 22 21 22 23 23 22 23 24 24 24 26 33 39 39 33 29 30 29
20 18 18 18 18 18 19 20 19 18 16 16 17 17 17 16 16 16 15 14 14 14 15 16 17 17 17 17 19 22 25 26 29 30 30 30 32 34 35 33 30 27 24 22 23 22 21 21 21 23 26 29 30 32 35 39 41 42 43 43 43 42 39 34 28 25 23 21 21 22 23 25 26 26 27 27 26 26 29 31 32 34 36 38 36
22 20 19 18 18 19 19 19 19 19 18 17 17 18 18 17 17 17 16 15 15 14 14 15 16 17 19 19 21 24 25 24 25 27 28 31 32 31 30 30 31 31 29 25 22 20 19 18 18 20 22 24 26 27 29 33 38 40 42 45 48 48 44 38 33 29 25 23 23 24 24 26 27 26 25 26 26 28 29 28 29 34 37 39 39
26 23 21 21 21 21 20 20 20 20 19 18 18 17 17 17 17 17 17 16 15 15 15 15 15 17 18 20 21 23 23 23 22 22 23 25 26 24 23 26 30 33 34 30 26 23 22 20 19 18 18 18 19 21 24 27 32 36 39 41 46 49 46 39 32 27 25 25 26 26 28 28 26 26 26 25 26 28 29 26 26 28 29 30 34
28 27 26 25 25 24 23 21 20 20 20 19 18 18 17 16 16 16 17 16 16 15 15 15 14 14 15 17 19 19 19 18 17 16 15 16 16 16 17 20 24 29 32 34 33 32 31 29 26 23 21 19 19 20 23 25 27 31 35 38 44 47 42 34 29 27 26 27 27 28 29 27 25 27 27 24 24 26 27 26 23 24 26 27 28
28 29 30 30 29 27 25 23 21 20 20 19 18 18 17 17 17 17 16 17 17 17 17 17 15 14 15 14 13 12 12 11 10 9 9 9 10 11 12 14 17 22 27 31 33 35 37 36 35 33 30 27 26 25 25 25 25 27 31 35 41 44 37 28 25 25 25 28 30 30 29 28 28 28 24 23 24 25 27 28 27 27 29 28 24
27 28 29 30 30 28 27 26 23 20 19 19 18 16 14 15 15 12 7 7 9 11 15 16 14 12 11 11 11 11 10 6 2 3 4 6 6 6 6 7 11 15 20 23 26 28 30 30 29 31 31 30 29 26 24 24 25 27 29 31 33 34 31 27 25 23 21 24 28 28 27 27 26 22 19 20 22 24 26 28 29 30 30 27 21
27 28 30 31 31 30 30 30 25 20 20 20 13 4 3 6 5 1 6 4 1 3 5 6 7 8 6 6 8 8 4 2 4 3 2 4 6 5 4 5 7 9 11 13 15 17 19 17 16 17 18 20 21 20 19 20 21 22 25 27 25 24 23 24 26 27 25 25 26 27 27 25 21 19 19 21 23 24 27 29 30 31 29 26 23
27 28 30 32 33 35 38 32 21 17 20 18 10 13 13 8 6 11 13 10 6 4 5 7 9 9 7 8 9 8 7 7 6 3 2 4 7 7 7 7 8 9 9 9 11 12 13 13 12 13 14 15 16 17 17 18 19 19 21 22 22 21 21 22 25 29 31 29 28 28 28 26 23 21 22 24 24 24 26 28 29 29 29 27 25
27 28 31 33 33 37 40 26 6 17 21 16 16 23 22 22 22 20 18 16 14 12 12 11 9 7 6 6 6 6 6 7 9 9 8 9 10 11 12 12 13 13 13 12 14 16 14 13 12 14 15 16 16 16 16 17 18 18 19 19 19 20 21 21 22 25 28 30 30 29 28 27 25 24 24 25 25 25 24 25 25 27 29 29 26
28 30 33 34 32 34 36 28 11 5 12 13 20 22 21 23 26 27 26 25 23 22 22 20 18 16 13 10 7 7 7 7 7 7 9 10 10 11 12 12 13 14 14 15 17 18 15 12 13 15 16 18 19 18 17 17 18 18 18 18 18 18 19 20 20 21 23 26 27 28 29 28 28 27 27 27 27 25 23 23 25 27 28 29 27
27 30 33 33 32 32 34 34 29 22 17 18 20 20 18 17 17 19 23 27 28 30 30 28 26 25 22 20 17 15 12 10 7 6 5 6 7 8 9 10 11 12 13 14 16 16 13 12 13 14 15 17 17 16 15 15 15 16 15 16 16 17 19 20 20 21 23 25 26 27 28 29 29 29 29 27 26 24 22 22 25 26 25 24 25
25 28 31 32 31 33 35 37 35 32 28 26 26 26 24 20 16 14 13 16 20 25 28 29 30 30 28 27 25 22 19 16 13 10 7 5 4 4 3 3 3 2 3 4 5 7 7 8 9 10 10 11 12 12 11 11 11 11 12 13 14 14 15 17 18 20 21 23 24 25 26 26 27 27 27 26 25 24 22 21 22 23 23 23 23
25 25 28 30 31 33 35 38 37 34 31 29 28 27 26 25 23 20 16 15 15 17 20 23 27 30 30 30 30 28 26 23 21 18 16 13 11 11 12 14 14 12 11 10 9 7 6 6 6 7 7 7 8 9 10 10 10 10 11 12 13 13 13 14 15 17 18 18 19 22 26 26 26 25 25 24 23 22 22 23 23 24 25 24 23
25 25 26 28 30 32 34 35 36 35 33 30 29 28 28 29 26 22 20 19 19 18 17 18 22 26 30 31 31 31 32 30 28 27 25 22 20 19 19 19 17 16 16 16 15 13 13 13 12 11 10 10 10 9 9 9 9 10 10 10 10 10 11 12 13 13 14 14 16 20 23 25 25 24 23 22 22 21 22 24 25 26 26 25 24
24 26 26 25 25 27 30 32 33 32 31 31 30 29 30 32 31 27 22 21 22 21 21 22 24 27 30 30 29 29 31 32 33 34 34 32 30 28 25 21 18 17 18 18 18 16 16 16 16 14 13 13 13 12 11 10 10 10 10 9 9 8 9 10 11 11 10 11 13 15 18 20 21 21 20 20 21 21 21 22 25 26 26 26 25
22 26 27 25 23 22 23 27 31 32 31 31 31 30 27 28 32 30 24 22 23 23 22 25 27 27 27 27 26 26 29 34 36 37 37 36 33 30 27 24 22 21 20 19 19 18 17 18 18 17 16 15 15 15 14 13 12 12 12 11 10 10 10 10 9 9 9 9 11 12 14 16 18 18 18 19 20 21 20 21 23 23 23 24 24
20 24 26 26 25 24 23 24 27 29 29 29 29 29 27 27 28 27 22 20 23 24 23 25 28 28 28 28 28 27 30 33 33 32 33 33 31 28 26 26 25 24 23 22 22 21 19 19 19 19 18 18 17 17 17 16 15 14 13 13 12 12 13 14 12 11 10 10 10 10 10 11 13 14 14 14 16 18 18 18 20 20 18 19 22
17 20 23 24 23 23 22 22 22 23 24 25 26 27 27 26 25 22 18 18 22 24 24 25 26 27 29 30 30 28 27 27 26 28 30 32 31 29 27 27 26 25 24 24 23 22 20 19 20 20 20 20 19 19 18 18 17 16 15 14 13 13 13 14 13 12 11 10 9 9 8 8 8 9 10 10 11 13 14 15 17 18 16 16 17
15 17 19 20 20 20 19 20 21 20 19 20 21 22 22 22 21 20 21 22 22 23 23 23 24 25 28 28 27 27 26 26 27 28 29 29 30 29 28 27 26 25 24 24 23 22 21 20 20 21 21 22 21 21 21 21 20 19 18 17 16 15 14 14 13 14 14 12 11 10 9 7 7 7 8 8 8 10 11 11 12 14 15 14 14
14 15 17 18 19 20 19 19 19 19 18 19 19 19 18 18 18 20 22 23 22 22 23 23 23 25 27 28 28 29 29 28 28 28 28 27 28 28 27 26 25 25 24 23 22 21 21 21 22 22 23 23 23 22 23 24 23 21 20 20 19 19 17 15 15 16 17 15 13 12 11 9 7 7 6 6 6 7 8 9 9 11 11 11 12
11 12 14 16 18 19 19 18 18 18 19 18 18 17 17 17 18 18 20 21 22 23 23 22 22 23 24 26 28 30 29 27 26 26 26 26 25 25 24 24 23 23 24 25 25 24 23 23 24 24 24 24 24 23 23 23 23 22 23 23 22 21 21 19 19 19 19 17 15 13 13 11 8 6 5 4 4 4 5 6 7 9 9 9 11
10 10 11 13 15 16 17 17 17 17 18 18 18 18 19 19 19 19 19 19 20 20 20 20 21 21 21 23 26 28 27 25 24 25 24 24 23 22 22 22 22 23 24 24 24 26 26 26 27 26 25 24 25 26 26 26 25 24 24 25 24 25 25 24 23 22 20 18 15 13 13 12 10 8 7 6 5 4 3 4 4 6 7 8 10
11 10 10 11 12 13 14 15 15 15 16 16 17 18 19 19 19 19 19 19 18 18 18 18 17 18 19 20 22 23 22 21 21 22 22 21 21 20 19 19 20 22 23 23 23 25 28 29 29 29 26 23 23 26 29 30 29 28 28 28 28 28 28 27 25 23 20 17 15 13 12 12 11 10 9 8 7 5 4 3 3 4 5 7 9
10 10 10 10 10 11 12 12 13 14 14 15 15 16 16 17 17 18 18 18 18 18 17 17 17 18 18 18 18 19 18 18 18 18 18 18 19 18 18 20 21 21 22 23 24 25 27 29 30 31 30 28 26 27 30 32 31 30 31 33 32 30 28 27 25 24 20 17 14 12 10 10 10 10 10 9 8 6 5 5 4 3 4 6 7
10 10 10 10 10 10 10 11 11 12 12 12 13 14 13 14 14 15 16 16 17 17 16 17 17 17 17 17 17 17 17 17 17 17 16 17 18 18 19 22 23 23 24 26 26 24 24 27 28 29 31 32 31 29 30 32 33 33 34 35 35 32 29 27 25 23 20 17 15 12 10 9 8 8 8 7 6 5 4 3 3 2 2 3 4
10 10 10 10 10 10 10 10 11 11 11 11 11 12 12 12 12 13 13 14 14 15 15 15 15 15 15 15 15 15 16 16 16 16 16 17 18 18 19 20 20 20 23 27 28 26 25 26 28 29 31 33 32 30 29 31 33 35 36 36 34 31 28 25 24 22 19 17 15 13 11 9 8 8 7 6 6 5 4 4 3 3 2 2 2
10 10 10 10 11 11 11 11 11 11 11 11 11 11 12 12 12 12 12 12 13 13 13 14 14 13 13 14 15 15 15 15 15 16 16 16 17 17 18 18 18 18 19 21 24 24 25 27 28 29 32 33 32 30 29 30 33 35 37 36 34 31 27 24 22 20 18 17 17 16 14 13 11 9 8 7 6 5 5 5 5 4 3 3 2
10 10 10 10 10 10 10 10 11 11 11 11 11 11 11 11 12 12 12 12 12 12 12 13 13 13 13 13 14 14 15 15 15 15 15 15 16 16 16 17 18 18 17 18 19 20 21 23 24 25 28 32 33 31 29 30 32 34 35 35 33 30 27 25 21 18 17 18 18 17 16 15 13 11 10 9 8 7 6 5 5 4 3 3 3
9 9 9 9 10 10 10 10 11 11 11 11 11 11 11 11 11 12 12 12 12 12 12 12 12 13 13 13 13 14 14 14 14 14 14 15 15 16 16 17 17 17 17 17 18 18 18 20 20 20 22 27 32 32 30 30 31 32 32 32 31 29 27 26 23 19 17 18 18 18 17 16 14 13 12 11 9 8 7 5 4 3 3 2 2
Wind_Direction
252 236 226 222 225 226 221 219 223 226 226 226 223 217 206 203 209 208 200 197 200 200 197 202 211 216 216 217 218 216 214 212 214 216 216 217 217 218 219 219 220 223 224 223 224 225 225 224 223 224 229 233 235 236 238 240 242 243 243 241 240 240 241 244 250 255 254 255 259 259 254 251 251 248 245 246 246 247 246 243 242 245 250 254 257
272 243 231 226 224 225 225 223 225 227 225 225 226 223 211 203 207 204 200 203 204 199 199 203 209 212 212 214 217 214 210 209 211 213 214 215 216 217 217 219 220 221 222 223 224 223 224 225 224 222 225 230 235 237 239 241 241 241 240 240 240 240 240 243 249 255 255 253 256 259 258 254 254 252 248 249 250 249 247 245 242 241 244 247 251
295 258 238 233 228 225 225 225 225 226 223 222 222 220 213 210 208 201 200 202 200 197 202 206 206 207 207 213 219 216 208 206 209 212 214 213 214 216 217 218 220 220 221 222 224 223 223 223 225 224 223 227 230 232 235 238 240 241 241 240 241 241 240 241 247 253 258 256 253 255 256 254 254 254 252 253 254 251 249 248 245 243 243 242 245
311 281 246 236 233 228 226 225 224 223 223 222 219 214 211 210 207 201 199 200 200 201 208 212 211 210 208 210 217 219 213 207 206 210 214 213 213 216 218 219 221 222 221 221 223 224 222 221 224 226 225 227 228 226 225 227 231 238 243 243 242 243 242 241 243 247 254 259 256 253 255 256 255 254 253 254 253 250 250 252 251 248 244 239 242
316 300 263 241 234 231 227 226 225 222 222 221 218 214 211 205 201 200 199 200 203 205 208 210 210 211 210 210 213 217 218 214 208 209 213 215 215 217 218 220 222 223 223 221 222 224 222 221 221 224 226 229 229 227 224 220 222 229 236 240 242 243 243 243 243 244 246 252 256 257 258 258 258 256 253 254 256 253 251 254 254 252 246 242 243
316 311 284 251 239 237 231 227 225 223 222 221 219 215 210 202 199 202 201 197 199 204 206 207 207 208 211 213 213 214 217 218 215 214 214 215 217 218 219 219 220 223 223 220 220 222 222 222 220 220 224 226 226 227 227 224 223 225 229 233 236 239 241 241 242 245 246 247 251 254 255 255 255 255 253 254 257 257 256 255 253 248 242 242 244
316 313 298 266 248 243 237 233 230 224 219 218 217 212 208 204 202 209 211 201 198 200 200 201 204 207 209 211 212 212 214 215 214 215 215 214 216 219 221 221 220 222 224 222 220 220 220 220 219 219 221 223 223 224 225 225 225 228 230 231 233 236 237 237 238 241 245 247 248 250 251 251 250 249 251 253 253 252 254 256 254 247 240 238 242
317 315 305 281 258 242 234 233 235 229 217 212 213 212 213 214 212 216 217 212 207 204 199 199 205 209 209 209 211 213 216 216 213 213 215 215 214 215 219 222 221 222 224 223 221 220 218 217 217 218 219 220 220 220 221 221 221 225 230 231 234 237 237 235 235 236 241 245 246 247 249 250 247 246 246 244 244 246 247 252 255 253 249 242 236
316 318 311 282 258 244 235 232 237 236 223 211 211 214 216 217 218 219 218 215 212 207 204 207 213 216 212 208 209 211 214 216 211 208 212 212 209 208 213 220 221 221 222 222 221 220 218 216 216 217 218 218 217 216 217 218 217 219 224 225 228 233 236 237 234 233 236 240 243 245 247 248 246 244 240 233 234 243 248 250 253 254 257 256 247
317 318 318 290 256 239 236 235 238 242 237 221 213 213 212 212 214 215 214 214 213 210 208 210 216 219 217 213 213 212 213 213 209 205 207 207 204 203 208 216 222 223 221 221 221 220 219 218 218 219 219 219 219 218 218 218 217 218 219 220 222 226 232 236 234 232 232 235 239 240 242 246 245 242 242 239 237 241 243 244 249 251 255 261 262
318 317 318 308 270 233 233 237 235 239 243 235 224 217 211 210 212 211 211 212 212 210 211 209 209 213 217 217 216 216 217 215 211 209 210 209 206 204 205 210 218 223 222 221 220 219 220 220 220 221 222 221 222 224 225 225 224 226 227 225 223 223 226 232 234 232 230 232 236 236 239 245 244 241 242 243 240 240 240 238 242 247 250 255 264
317 317 317 312 296 236 229 240 240 238 240 238 231 224 215 213 215 214 210 208 206 207 210 209 206 207 212 213 210 213 218 219 216 213 212 211 208 206 205 208 214 219 222 222 221 220 221 221 220 220 221 221 223 225 229 231 231 233 236 235 233 230 228 231 234 233 232 233 233 233 237 242 245 242 240 239 240 241 239 235 235 240 248 251 257
318 318 317 314 312 273 225 237 246 245 244 244 244 240 230 221 221 221 214 206 205 207 209 211 210 206 206 209 209 212 220 225 223 218 214 213 211 209 208 209 212 215 217 220 222 222 221 221 221 220 219 221 223 223 226 231 234 236 239 242 241 239 236 235 236 236 237 237 236 234 233 235 240 241 238 236 239 241 239 235 235 241 245 242 246
320 319 320 319 320 317 265 249 259 260 251 245 250 253 246 230 223 224 217 206 204 206 206 210 212 209 208 211 212 215 221 227 228 222 216 215 214 213 211 212 215 216 216 218 220 221 220 217 217 216 215 217 220 219 218 222 228 232 237 241 243 243 243 241 240 239 239 240 241 240 236 233 234 236 233 230 234 239 240 235 235 242 244 240 244
322 323 327 327 326 330 326 280 266 271 263 247 242 247 247 240 230 224 216 208 205 205 205 207 209 209 211 212 213 215 220 226 230 226 220 216 216 215 213 214 219 221 221 221 222 225 224 220 217 215 212 211 214 216 215 214 217 221 228 236 241 242 243 243 243 241 240 240 241 242 242 238 235 235 233 229 232 238 238 238 245 249 247 247 248
326 327 327 327 329 332 334 324 282 259 251 244 242 243 243 242 238 230 221 216 212 207 206 208 210 210 211 212 214 217 220 224 228 228 224 219 217 216 214 216 222 225 225 224 225 228 229 228 224 219 216 212 213 217 216 211 209 214 220 229 236 238 240 242 242 240 241 241 240 241 242 241 238 236 234 232 233 234 233 238 246 248 244 246 248
329 328 324 324 326 326 327 327 317 289 259 245 244 248 249 247 243 236 228 222 217 213 210 209 210 211 211 213 216 219 222 224 226 229 227 223 220 217 215 217 223 227 228 227 228 229 229 230 229 227 226 224 221 221 218 210 206 212 219 225 230 235 240 244 242 240 242 243 243 242 243 244 244 241 237 236 236 231 228 234 235 234 236 244 248
327 324 320 319 321 321 321 320 317 311 300 279 257 248 248 249 249 246 240 233 223 218 216 214 213 214 216 217 218 221 224 226 229 231 230 226 222 218 216 218 222 227 229 228 230 232 232 233 233 232 234 234 230 226 221 214 211 213 219 225 229 234 239 242 242 242 242 243 245 245 244 245 248 247 243 243 241 234 230 231 229 229 236 245 250
328 322 318 316 315 315 316 314 311 308 304 298 287 267 249 246 247 247 246 245 238 228 221 219 218 218 220 222 222 225 228 230 233 235 234 230 224 218 216 218 221 224 228 229 229 232 234 235 234 233 235 237 235 233 228 222 218 215 219 224 228 234 240 240 238 239 240 240 242 243 242 242 244 246 246 245 242 237 233 232 230 231 239 244 247
326 321 316 314 311 309 309 308 306 303 300 298 295 288 272 257 249 244 244 244 242 236 228 222 220 221 222 224 226 227 229 232 236 238 236 231 224 218 214 218 221 222 226 229 229 230 233 235 235 236 237 237 237 237 235 231 227 224 224 227 231 236 241 240 238 237 237 236 237 238 240 241 240 242 244 243 240 237 235 232 230 230 236 241 242
325 322 319 315 310 308 306 303 300 298 295 293 290 286 278 266 256 249 246 242 237 235 231 226 225 226 225 226 227 229 231 232 235 238 236 230 225 219 215 215 218 222 227 231 231 232 233 233 235 239 242 243 241 240 239 239 236 234 233 233 236 241 244 247 246 238 231 231 236 237 237 237 233 231 232 232 230 231 232 231 230 228 228 232 235
325 322 320 317 314 312 307 303 300 295 290 287 286 282 277 269 259 251 247 245 240 237 235 231 228 227 227 228 229 231 234 235 236 238 240 238 232 225 220 217 216 219 227 232 232 233 234 232 233 238 243 247 247 244 242 242 241 239 239 241 243 245 246 250 253 243 228 228 237 242 239 237 233 229 225 219 215 218 224 227 227 226 225 226 227
329 324 321 318 315 312 308 304 300 293 287 283 279 276 274 269 260 249 241 239 237 236 238 237 230 225 226 230 231 230 233 237 238 237 238 241 237 230 227 226 222 220 227 235 235 234 234 233 235 240 244 249 251 249 246 243 242 242 243 246 248 247 246 247 249 247 241 238 240 243 242 241 240 239 235 226 214 209 215 222 226 228 230 229 227
333 329 324 319 316 311 307 303 297 290 285 281 274 270 268 264 259 251 241 235 232 228 228 231 228 223 222 226 229 228 228 231 235 236 236 239 239 237 237 238 233 226 229 239 243 243 243 244 242 241 242 247 252 254 251 247 245 246 247 249 251 249 246 245 245 245 245 245 243 243 243 243 245 247 245 235 222 216 218 225 231 232 233 232 230
336 332 328 324 319 314 307 299 290 283 278 273 267 264 261 257 255 250 242 237 236 233 227 225 223 223 224 225 226 226 226 226 230 232 234 238 244 248 250 249 243 235 233 239 246 249 251 254 254 251 252 254 254 256 255 250 248 248 248 250 251 248 244 244 244 242 240 241 243 243 244 244 248 253 251 240 229 226 226 227 230 232 231 230 231
336 334 331 328 323 317 309 299 289 279 270 264 259 257 254 252 250 248 242 237 238 240 238 232 225 222 226 229 227 224 223 224 224 227 231 238 249 258 258 255 250 243 241 244 248 250 250 253 257 262 268 271 267 263 262 259 254 249 247 248 249 246 244 243 242 240 240 241 243 245 245 245 250 256 251 235 223 227 230 226 222 224 223 222 225
337 334 331 328 324 318 309 299 289 278 268 258 251 247 244 243 243 244 242 239 238 241 244 241 235 229 227 230 230 224 223 226 225 224 229 233 240 249 255 254 249 244 242 244 248 251 253 255 259 261 264 267 268 267 266 263 257 251 247 246 247 246 244 242 241 241 242 242 243 245 246 249 254 254 241 223 220 229 233 229 223 221 218 216 217
338 333 328 325 321 314 306 296 286 274 262 252 246 242 237 234 235 237 246 251 248 249 251 249 251 251 247 251 256 246 237 233 203 183 220 227 215 216 234 241 239 239 241 243 248 253 257 259 261 262 261 262 264 264 260 256 252 249 246 245 246 246 244 242 242 241 241 243 245 247 249 252 252 243 222 217 225 231 230 229 228 224 218 211 210
338 333 330 326 320 315 309 295 278 261 247 238 232 232 257 250 240 113 67 51 352 301 302 314 328 324 321 328 312 287 278 11 55 93 182 223 210 201 208 214 219 231 244 249 249 253 256 257 256 257 258 258 256 255 252 248 246 245 243 242 241 241 240 240 242 243 244 245 247 249 250 252 249 237 228 231 235 234 230 228 226 223 216 208 209
338 335 336 334 328 324 318 303 270 235 231 222 170 95 71 59 70 81 79 71 62 49 38 27 7 351 2 22 10 1 8 360 337 312 260 237 230 232 241 240 236 241 251 254 249 244 245 247 248 249 251 249 245 243 243 243 242 243 242 240 237 236 237 239 243 246 248 248 247 248 249 249 246 241 238 239 239 238 236 231 224 217 210 205 208
341 341 342 340 337 336 335 330 257 205 217 201 133 100 85 76 75 81 87 85 80 75 70 62 43 19 20 27 9 358 355 330 306 293 282 270 261 256 254 250 248 248 248 247 244 239 236 238 243 249 253 254 250 247 246 246 246 247 247 245 241 237 235 235 237 241 244 244 244 246 247 247 244 241 240 241 242 240 237 231 222 214 210 209 212
346 346 346 346 347 351 356 7 31 191 206 160 121 110 105 92 79 76 79 82 83 80 74 68 62 58 57 57 46 28 13 348 322 306 291 282 277 274 267 260 257 255 249 243 240 238 235 236 241 247 254 259 257 253 251 252 253 253 252 250 246 241 237 236 236 236 237 238 240 242 244 246 247 246 245 245 245 240 233 225 216 211 212 215 219
352 352 352 355 360 6 13 22 29 33 47 71 81 86 94 96 90 82 77 74 75 74 70 67 64 62 61 61 60 55 47 37 22 1 334 307 298 294 284 273 265 258 250 244 242 241 240 242 246 250 258 265 268 268 267 268 269 268 266 263 258 252 249 246 241 235 234 236 238 240 243 244 245 247 247 246 243 238 229 221 215 212 214 218 221
358 358 360 4 10 16 23 29 32 34 39 47 53 60 64 67 71 75 71 65 63 62 59 58 58 57 56 56 56 56 55 53 50 45 43 39 31 27 25 18 360 320 284 267 264 263 263 264 270 277 282 289 296 302 302 301 299 298 296 293 291 286 277 264 250 239 236 237 238 240 243 243 243 243 244 244 242 236 229 222 215 214 216 219 219
3 3 5 11 17 21 27 34 38 39 40 43 49 55 57 58 59 59 57 55 55 53 49 48 49 51 52 51 51 53 55 55 55 57 60 64 74 81 71 55 46 40 36 32 27 21 16 4 352 345 340 334 332 328 325 322 320 319 316 312 309 307 302 290 271 253 245 243 241 241 244 245 245 243 242 241 238 233 227 222 217 217 219 220 218
7 8 9 15 22 28 32 36 40 43 44 46 50 53 56 58 56 53 53 56 56 52 47 41 41 46 48 47 47 51 53 55 57 58 58 60 68 72 63 49 41 37 34 30 29 31 32 28 23 19 16 12 6 360 355 350 343 339 334 327 321 314 309 304 293 274 261 254 252 249 247 247 247 246 243 240 236 232 227 223 221 222 221 219 217
11 13 13 14 20 29 35 38 41 44 47 49 52 54 56 60 60 56 52 54 55 53 47 41 39 39 38 37 39 44 50 56 59 58 55 55 57 57 52 44 41 39 34 28 26 28 29 27 24 22 20 18 16 12 9 7 4 1 357 353 349 343 331 319 309 300 287 273 265 261 254 250 250 247 242 238 236 234 230 225 225 227 225 220 217
15 16 18 20 23 28 33 36 39 43 45 48 50 51 51 56 61 59 53 52 56 54 48 44 43 36 29 29 31 35 45 53 55 50 45 44 45 44 43 42 41 40 35 30 28 29 27 25 23 22 19 17 16 14 13 13 12 12 12 10 9 8 6 0 348 331 314 298 287 279 268 260 257 251 244 240 238 237 234 229 227 227 225 220 218
17 17 20 27 31 32 34 36 37 40 42 43 45 47 46 46 50 52 49 51 57 55 48 46 45 37 31 33 37 39 44 49 48 43 39 38 38 37 38 39 38 36 33 31 30 29 27 24 22 21 20 18 17 15 15 14 13 12 14 15 15 17 19 21 16 2 347 329 313 301 287 275 267 259 251 246 242 241 241 238 231 228 226 222 221
20 20 22 28 32 33 35 37 36 35 37 38 40 44 46 46 46 45 44 48 54 54 51 48 44 38 35 38 43 47 49 48 46 44 42 40 38 36 35 36 34 32 30 29 28 27 26 25 24 22 20 18 17 17 17 17 16 15 15 14 15 15 18 20 18 10 2 351 336 323 310 295 284 271 260 257 254 248 247 245 238 234 235 234 230
25 27 25 26 30 32 35 37 36 35 36 39 40 42 45 46 47 47 47 49 53 55 55 52 48 44 41 41 45 52 55 53 49 47 44 41 39 37 36 35 33 31 29 28 28 26 24 25 27 27 23 19 16 15 16 18 18 17 16 14 12 10 11 15 17 14 11 5 356 350 339 317 302 289 269 261 262 257 252 249 241 234 234 237 234
27 32 30 29 30 33 36 37 38 39 41 43 44 43 43 44 45 47 48 48 50 53 55 52 49 47 46 46 48 53 55 55 52 49 46 42 39 37 35 34 33 31 31 32 32 29 25 24 27 30 28 23 18 14 15 17 17 16 14 13 11 9 6 6 7 9 10 6 0 359 356 343 326 311 287 268 264 261 255 250 240 230 227 228 227
25 31 36 37 37 38 38 38 39 42 43 43 43 42 43 45 46 47 48 48 48 50 51 47 44 43 43 44 47 50 50 48 47 46 45 42 38 35 33 31 30 30 32 35 38 38 35 30 29 31 32 29 24 20 19 18 16 15 12 10 9 8 6 4 2 1 360 358 356 358 360 357 350 341 324 309 298 282 268 254 240 233 228 225 224
26 26 33 40 41 42 42 41 41 42 41 42 43 42 42 44 45 45 47 48 47 48 48 45 43 44 43 42 44 45 44 43 43 43 43 42 39 36 33 31 30 31 32 32 35 38 39 37 34 32 32 31 29 29 28 25 22 18 14 11 8 7 5 3 2 357 351 347 349 355 359 359 358 357 351 345 342 325 298 271 248 239 232 224 220
28 27 32 38 40 42 43 42 43 44 42 42 43 42 42 44 44 44 45 46 46 47 48 46 44 43 42 40 40 39 39 41 42 41 39 38 36 34 32 30 29 30 31 30 31 33 36 37 35 33 31 28 26 28 30 29 27 24 19 15 13 8 4 3 3 1 355 349 345 346 354 359 0 360 357 354 354 355 341 312 286 259 239 227 222
28 28 33 37 38 42 43 40 40 43 44 44 45 45 45 46 46 46 47 47 47 48 48 45 43 42 40 38 38 37 36 38 39 37 35 35 33 32 33 33 32 31 31 32 31 30 30 31 31 31 30 28 26 24 25 27 27 24 20 18 17 13 9 9 10 8 6 2 352 341 344 355 359 359 360 360 359 359 355 341 320 284 245 234 232
29 29 32 35 38 41 42 39 38 41 43 44 43 43 43 43 44 46 47 47 48 49 47 45 44 43 40 39 39 37 35 35 34 32 32 32 31 30 31 32 32 30 31 33 33 31 27 26 26 26 27 28 28 25 21 22 24 23 20 20 20 16 13 14 15 14 15 15 4 346 338 344 350 351 355 0 358 351 347 343 329 290 250 239 234
29 30 31 33 35 38 39 39 39 41 43 43 40 39 38 38 39 41 43 44 46 47 46 46 46 43 38 35 34 32 30 30 30 29 28 27 26 25 24 24 23 22 24 29 32 32 30 29 27 25 25 26 27 25 20 18 20 21 19 19 19 17 14 15 17 18 21 23 18 5 355 351 350 348 351 356 355 348 341 339 335 325 310 291 246
30 33 34 33 34 36 36 37 37 38 40 42 42 41 40 39 40 39 40 40 41 39 39 41 41 38 34 32 30 28 28 27 27 27 26 25 23 22 20 19 18 17 18 22 24 26 28 28 27 26 25 24 25 25 21 16 17 19 18 16 15 15 15 17 19 21 25 29 28 22 15 9 3 360 359 358 358 358 351 340 333 327 317 304 269
33 36 36 36 37 37 37 39 41 40 39 40 41 40 40 40 41 39 37 38 39 37 35 35 34 33 32 32 28 27 27 27 26 26 24 22 21 19 18 17 18 17 17 17 16 16 18 19 19 20 20 20 22 24 22 17 15 17 16 14 13 13 15 15 17 20 27 31 28 24 20 15 10 8 10 12 10 9 7 359 348 338 325 311 289
39 41 40 39 41 40 40 41 43 42 40 40 40 41 40 40 40 38 36 37 38 36 34 33 33 32 32 31 28 27 27 26 26 26 24 22 20 18 17 16 16 15 16 16 15 14 14 13 12 13 13 13 16 21 21 18 17 17 15 13 12 13 14 15 16 18 25 29 24 19 18 17 13 11 18 24 24 18 12 10 7 360 349 329 290